Terug naar catalogus

NAVSTAR 54

USA 177

ActiefNavigatieHEO
NORAD 28190·PAYLOAD·🇺🇸 United States

Gelanceerd Mar 20, 2004 vanaf Cape Canaveral Space Force Station

Loading…

Volgende Passages (komende 24 uur)

TLE

VersSource: CelesTrak SupGP

Epoch: Sep 17, 2026, 16:38 UTC

1 28190C 04009A   26260.69312500  .00000000  00000+0  00000+0 0  2604
2 28190  54.7580 271.9422 0118029 176.6172 229.1579  2.00573862    18

Volg NAVSTAR 54 in realtime met AllMySat

Download on the App Store